"Pseudo-MPEC" for LA0CemH

Created 2026 Aug 8 2:35:04 UT using Find_Orb

Click here for an explanation of pseudo-MPECs

 
 Astrometry: 
     LA0CemH* C2026 07 24.64421820 54 57.888-12 14 53.81   ~7SG5 18.0 GVNEOCPP07
     LA0CemH  C2026 07 24.69545521 05 50.280-09 11 41.39   ~7SG5 17.9 GVNEOCPP07
     LA0CemH  C2026 07 24.73416921 14 28.692-06 41 24.40   ~7SG5 18.1 GVNEOCPP07
     LA0CemH  C2026 07 24.73610521 14 55.241-06 33 38.30   ~7SG5 18.0 GVNEOCPP07
     LA0CemH  C2026 07 24.78473121 26 22.188-03 11 01.21   ~7SG5 17.8 GVNEOCPP07
     LA0CemH  C2026 07 24.82850621 37 15.696+00 02 06.43   ~7SG5 17.9 GVNEOCPP07
     LA0CemH  C2026 07 24.87813521 50 18.684+03 50 03.23   ~7SG5 18.4 GVNEOCPP07

Station data:
(P07) Space Surveillance Telescope, HEH Station  (S21.895685 E114.089870)
   Australia/WA.  Observers M. Blythe, R. Brungard, P. Festler, T. McVey, J.
   Paige, G. Spitz, L. Banks. Measurers M. Cornell, M. Kotson, R. Rios, J.
   Ruprecht, J. Vaillancourt, J. Varey, H. Viggh, D. Woods. 3.5-m f/1.0
   reflector + CCD.

Orbital elements:  LA0CemH
   Perigee 2026 Jul 24.978661 +/- 0.000186 TT = 23:29:16.3 (JD 2461246.478661)
Epoch 2026 Jul 25.0 TT = JDT 2461246.5                           AutoNEOCP
q342516.2732 +/- 1440               (J2000 equator)
H   30.26 G 0.15                    Peri.   15.333408 +/- 0.023
                                    Node   325.121413 +/- 0.0035
e  47.45657782 +/- 0.604            Incl.   47.230741 +/- 0.010
From 7 observations 2026 July 24 (5.6 hr); mean residual 0".09
Residuals in arcseconds: 
260724 P07  .10+  .00     260724 P07  .08+  .03-    260724 P07  .03+  .03+    
260724 P07  .12-  .12-    260724 P07  .00   .13+    
260724 P07  .05-  .17+    260724 P07  .00   .14-    

Ephemerides (geocentric):
Date (UTC) HH   RA             Dec           delta  r     elong  mag " sig PA
---- --------  ------------   ------------  ------ ------ -----  --- --------
2026 08 08 03  05 07 37.789   +45 09 37.10  .06030 .98346  58.1 28.9 62.6 138
2026 08 08 04  05 07 41.532   +45 09 27.83  .06048 .98339  58.1 28.9 62.6 138
2026 08 08 05  05 07 45.266   +45 09 18.59  .06066 .98333  58.1 28.9 62.7 138
2026 08 08 06  05 07 48.992   +45 09 09.38  .06083 .98326  58.1 28.9 62.7 138
2026 08 08 07  05 07 52.708   +45 09 00.19  .06101 .98319  58.2 28.9 62.7 138
2026 08 08 08  05 07 56.415   +45 08 51.03  .06119 .98312  58.2 28.9 62.7 138
2026 08 08 09  05 08 00.114   +45 08 41.90  .06136 .98305  58.2 28.9 62.7 138
2026 08 08 10  05 08 03.805   +45 08 32.79  .06154 .98299  58.2 28.9 62.7 138
2026 08 08 11  05 08 07.487   +45 08 23.71  .06172 .98292  58.3 28.9 62.7 138
2026 08 08 12  05 08 11.160   +45 08 14.65  .06189 .98285  58.3 28.9 62.7 138
2026 08 08 13  05 08 14.825   +45 08 05.63  .06207 .98278  58.3 28.9 62.7 138
2026 08 08 14  05 08 18.482   +45 07 56.62  .06225 .98272  58.3 28.9 62.7 138
2026 08 08 15  05 08 22.131   +45 07 47.64  .06242 .98265  58.4 28.9 62.8 138
2026 08 08 16  05 08 25.772   +45 07 38.69  .06260 .98258  58.4 28.9 62.8 138
2026 08 08 17  05 08 29.405   +45 07 29.76  .06278 .98252  58.4 28.9 62.8 138
2026 08 08 18  05 08 33.030   +45 07 20.86  .06295 .98245  58.4 28.9 62.8 138
2026 08 08 19  05 08 36.648   +45 07 11.98  .06313 .98238  58.5 28.9 62.8 138
2026 08 08 20  05 08 40.257   +45 07 03.12  .06331 .98232  58.5 28.9 62.8 138
2026 08 08 21  05 08 43.859   +45 06 54.29  .06348 .98225  58.5 28.9 62.8 138
2026 08 08 22  05 08 47.454   +45 06 45.48  .06366 .98219  58.5 29.0 62.8 138
2026 08 08 23  05 08 51.041   +45 06 36.69  .06384 .98212  58.6 29.0 62.8 138
2026 08 09 00  05 08 54.621   +45 06 27.93  .06401 .98206  58.6 29.0 62.8 138
2026 08 09 01  05 08 58.194   +45 06 19.19  .06419 .98199  58.6 29.0 62.8 138
2026 08 09 02  05 09 01.759   +45 06 10.47  .06436 .98193  58.6 29.0 62.9 138
2026 08 09 03  05 09 05.318   +45 06 01.78  .06454 .98186  58.7 29.0 62.9 138
2026 08 09 04  05 09 08.869   +45 05 53.10  .06472 .98180  58.7 29.0 62.9 138
2026 08 09 05  05 09 12.413   +45 05 44.45  .06489 .98173  58.7 29.0 62.9 138
2026 08 09 06  05 09 15.951   +45 05 35.82  .06507 .98167  58.7 29.0 62.9 138
2026 08 09 07  05 09 19.482   +45 05 27.22  .06525 .98161  58.8 29.0 62.9 138
2026 08 09 08  05 09 23.006   +45 05 18.63  .06542 .98154  58.8 29.0 62.9 138
2026 08 09 09  05 09 26.523   +45 05 10.07  .06560 .98148  58.8 29.0 62.9 138
2026 08 09 10  05 09 30.034   +45 05 01.52  .06578 .98142  58.8 29.0 62.9 138
2026 08 09 11  05 09 33.538   +45 04 53.00  .06595 .98135  58.9 29.0 62.9 138
2026 08 09 12  05 09 37.036   +45 04 44.50  .06613 .98129  58.9 29.0 62.9 138
2026 08 09 13  05 09 40.528   +45 04 36.02  .06630 .98123  58.9 29.0 63.0 138
2026 08 09 14  05 09 44.013   +45 04 27.56  .06648 .98117  58.9 29.0 63.0 138
2026 08 09 15  05 09 47.492   +45 04 19.12  .06666 .98110  59.0 29.0 63.0 138
2026 08 09 16  05 09 50.965   +45 04 10.69  .06683 .98104  59.0 29.0 63.0 138
2026 08 09 17  05 09 54.432   +45 04 02.29  .06701 .98098  59.0 29.0 63.0 138
2026 08 09 18  05 09 57.893   +45 03 53.91  .06719 .98092  59.0 29.0 63.0 138
2026 08 09 19  05 10 01.348   +45 03 45.55  .06736 .98086  59.1 29.0 63.0 138
2026 08 09 20  05 10 04.797   +45 03 37.20  .06754 .98079  59.1 29.0 63.0 138
2026 08 09 21  05 10 08.240   +45 03 28.88  .06772 .98073  59.1 29.0 63.0 138
2026 08 09 22  05 10 11.678   +45 03 20.57  .06789 .98067  59.2 29.0 63.0 138
2026 08 09 23  05 10 15.110   +45 03 12.28  .06807 .98061  59.2 29.0 63.0 138
2026 08 10 00  05 10 18.536   +45 03 04.02  .06824 .98055  59.2 29.0 63.0 138
2026 08 10 01  05 10 21.956   +45 02 55.76  .06842 .98049  59.2 29.0 63.1 138
2026 08 10 02  05 10 25.371   +45 02 47.53  .06860 .98043  59.3 29.0 63.1 138